TimeEST,TemperatureF,Dew PointF,Humidity,Sea Level PressureIn,VisibilityMPH,Wind Direction,Wind SpeedMPH,Gust SpeedMPH,PrecipitationIn,Events,Conditions,WindDirDegrees,DateUTC
12:53 AM,72.0,64.0,76,30.06,10.0,NNW,5.8,-,N/A,,Clear,340,2012-11-16 05:53:00
1:53 AM,72.0,64.9,78,30.04,10.0,North,5.8,-,N/A,,Clear,350,2012-11-16 06:53:00
2:53 AM,72.0,64.9,78,30.04,10.0,North,5.8,-,N/A,,Clear,360,2012-11-16 07:53:00
3:53 AM,72.0,66.0,81,30.04,10.0,North,8.1,-,N/A,,Clear,10,2012-11-16 08:53:00
4:02 AM,71.6,66.2,83,30.04,10.0,North,8.1,18.4,N/A,,Scattered Clouds,10,2012-11-16 09:02:00
4:11 AM,71.6,66.2,83,30.04,10.0,North,12.7,18.4,N/A,,Mostly Cloudy,10,2012-11-16 09:11:00
4:40 AM,69.8,64.4,83,30.03,10.0,NNE,11.5,-,N/A,,Scattered Clouds,20,2012-11-16 09:40:00
4:53 AM,70.0,64.0,81,30.04,10.0,North,10.4,-,N/A,,Clear,10,2012-11-16 09:53:00
5:53 AM,70.0,63.0,78,30.06,10.0,NNE,10.4,-,N/A,,Clear,30,2012-11-16 10:53:00
6:53 AM,70.0,63.0,78,30.07,10.0,NNE,12.7,-,N/A,,Clear,30,2012-11-16 11:53:00
7:53 AM,71.1,63.0,75,30.07,10.0,NE,12.7,-,N/A,,Clear,40,2012-11-16 12:53:00
8:53 AM,73.9,63.0,68,30.08,10.0,NNE,11.5,-,N/A,,Clear,30,2012-11-16 13:53:00
9:53 AM,73.9,63.0,68,30.09,10.0,NE,13.8,-,N/A,,Clear,40,2012-11-16 14:53:00
10:53 AM,75.9,63.0,64,30.09,10.0,NNE,13.8,-,N/A,,Clear,30,2012-11-16 15:53:00
11:53 AM,73.9,63.0,68,30.07,10.0,NNE,12.7,-,N/A,,Clear,30,2012-11-16 16:53:00
12:53 PM,77.0,63.0,62,30.04,10.0,NNE,11.5,-,N/A,,Clear,20,2012-11-16 17:53:00
1:53 PM,77.0,64.0,64,30.04,10.0,North,8.1,-,N/A,,Clear,360,2012-11-16 18:53:00
2:53 PM,75.9,64.0,67,30.02,10.0,NNE,8.1,-,N/A,,Overcast,30,2012-11-16 19:53:00
3:53 PM,75.9,64.0,67,30.01,10.0,North,6.9,-,N/A,,Clear,10,2012-11-16 20:53:00
4:53 PM,73.9,64.9,73,30.02,10.0,Variable,4.6,-,N/A,,Partly Cloudy,0,2012-11-16 21:53:00
5:53 PM,73.0,64.9,76,30.03,10.0,North,4.6,-,N/A,,Partly Cloudy,360,2012-11-16 22:53:00
6:53 PM,75.9,64.0,67,30.04,10.0,NE,10.4,-,N/A,,Clear,50,2012-11-16 23:53:00
7:53 PM,73.9,66.0,76,30.05,10.0,NNE,9.2,-,N/A,,Clear,30,2012-11-17 00:53:00
8:53 PM,73.9,66.0,76,30.05,10.0,NNE,10.4,-,N/A,,Scattered Clouds,30,2012-11-17 01:53:00
9:53 PM,73.9,64.9,73,30.05,10.0,NNE,10.4,-,N/A,,Clear,30,2012-11-17 02:53:00
10:53 PM,73.0,66.0,79,30.05,10.0,NE,9.2,-,N/A,,Clear,40,2012-11-17 03:53:00
11:53 PM,73.0,64.9,76,30.04,10.0,NE,8.1,-,N/A,,Clear,40,2012-11-17 04:53:00